Location: Rounton
(54.4000°N, 1.3500°W)
Time: 07:19:11
(UTC+00:00)

Altair - Pass Details

Date: 08 December 2021
Orbit: 1501 x 1683 km, 47.2° (Epoch: 24 January)

Event Time Altitude Azimuth Distance (km) Brightness Sun altitude
Rises 19:48:44 0° 280° (W) 4,707 11.1 -34.4°
Reaches altitude 10° 19:52:05 10° 273° (W) 3,701 10.3 -34.9°
Maximum altitude 20:00:18 37° 210° (SSW) 2,175 8.3 -36.1°
Enters shadow 20:02:00 35° 188° (S) 2,258 8.2 -36.3°
Drops below altitude 10° 20:08:24 10° 147° (SSE) 3,646 - -37.2°
Sets 20:11:41 0° 140° (SE) 4,630 - -37.7°
